Location: Puketoi
(40.5833°S, 176.0167°E)
Time: 15:18:16
(UTC+00:00)

USA 229 DEB - Pass Details

Date: 08 February 2023
Orbit: 914 x 1298 km, 63.4° (Epoch: 16 March)

Event Time Altitude Azimuth Distance (km) Brightness Sun altitude
Rises 12:01:16 0° 214° (SW) 3,872 7.5 -34.0°
Reaches altitude 10° 12:04:02 10° 212° (SSW) 2,857 6.6 -34.1°
Enters shadow 12:09:30 60° 191° (S) 1,127 3.9 -34.2°
